FW8563 Weather Reports


Display with metric or nautical units.
time (UTC)temp
F
wind
direction
speed
MPH
gust
MPH
rain 1hr
in
rain 24hr
in
rain mn
in
humidity
%
barometer
mb
20260906052104 65 25 2.0 3.0 0.00 0.02 0.02 97 1023.5
20260906051604 65 31 2.0 4.0 0.00 0.02 0.02 97 1023.4
20260906051106 65 27 3.0 4.0 0.00 0.02 0.02 97 1023.3
20260906050604 65 30 2.0 4.0 0.00 0.02 0.02 97 1023.3
20260906050105 65 32 2.0 4.0 0.00 0.02 0.02 97 1023.3
20260906045606 65 26 1.0 3.0 0.00 0.02 0.02 97 1023.3
20260906045102 65 31 1.0 2.0 0.00 0.02 0.02 97 1023.2
20260906044601 65 32 1.0 2.0 0.00 0.02 0.02 97 1023.3
20260906044101 65 32 1.0 2.0 0.00 0.02 0.02 97 1023.3
20260906043558 65 32 1.0 2.0 0.00 0.02 0.02 97 1023.2
20260906043057 65 30 1.0 3.0 0.00 0.02 0.02 97 1023.3
20260906042103 65 30 1.0 2.0 0.01 0.02 0.02 97 1023.2
20260906041554 65 37 1.0 2.0 0.01 0.02 0.02 97 1023.2
20260906041048 65 23 1.0 3.0 0.01 0.02 0.02 97 1023.2
20260906040543 65 35 1.0 4.0 0.01 0.02 0.02 97 1023.2
20260906040045 66 34 0.0 4.0 0.01 0.02 0.02 97 1023.2
20260906035544 67 36 0.0 2.0 0.01 0.02 0.02 97 1023.1
20260906035043 67 55 0.0 2.0 0.01 0.02 0.02 97 1023.1
20260906034042 67 54 0.0 3.0 0.01 0.02 0.02 98 1023.1
20260906033544 67 36 0.0 3.0 0.01 0.02 0.02 98 1023.0
20260906033045 67 45 0.0 2.0 0.01 0.02 0.02 98 1023.0
20260906032541 67 22 0.0 2.0 0.01 0.02 0.02 98 1023.0
20260906032040 66 20 0.0 3.0 0.00 0.01 0.02 97 1023.0
20260906031537 66 25 0.0 3.0 0.00 0.01 0.01 97 1023.0
20260906031038 66 13 1.0 4.0 0.00 0.01 0.01 97 1023.0
20260906030536 66 31 2.0 7.0 0.00 0.01 0.01 97 1023.0
20260906030035 66 49 2.0 7.0 0.00 0.01 0.01 97 1022.9
20260906025531 67 58 1.0 5.0 0.00 0.01 0.01 97 1023.0
20260906024032 67 20 1.0 3.0 0.00 0.01 0.01 97 1023.0
20260906023533 67 51 0.0 3.0 0.00 0.01 0.01 97 1022.9
20260906023032 67 40 0.0 3.0 0.00 0.01 0.01 97 1023.0
20260906022028 68 77 1.0 3.0 0.00 0.01 0.01 97 1023.0
20260906021028 67 34 0.0 3.0 0.00 0.01 0.01 97 1023.0
20260906020529 67 30 0.0 3.0 0.00 0.01 0.01 97 1023.1
20260906020030 67 27 0.0 3.0 0.00 0.01 0.01 97 1023.1
20260906015529 67 18 0.0 4.0 0.00 0.01 0.01 97 1023.1
20260906015025 67 51 0.0 4.0 0.00 0.01 0.01 97 1023.0
20260906014524 67 27 0.0 2.0 0.00 0.01 0.01 97 1022.9
20260906013514 67 30 0.0 2.0 0.00 0.01 0.01 97 1023.1
20260906012510 67 27 1.0 2.0 0.00 0.01 0.01 97 1023.0
20260906012007 67 23 0.0 2.0 0.01 0.01 0.01 97 1023.1
20260906011508 67 16 0.0 2.0 0.01 0.01 0.01 97 1023.2
20260906011007 67 16 1.0 2.0 0.01 0.01 0.01 97 1023.2
20260906010005 67 11 1.0 2.0 0.01 0.01 0.01 97 1023.3
20260906005006 67 356 0.0 2.0 0.01 0.01 0.01 97 1023.3
20260906004506 67 342 0.0 1.0 0.01 0.01 0.01 97 1023.3
20260906003459 68 352 1.0 3.0 0.01 0.01 0.01 97 1023.3
20260906002500 68 342 1.0 4.0 0.00 0.00 0.01 96 1023.3
20260906002002 69 334 0.0 3.0 0.00 0.00 0.00 96 1023.4
20260906001459 69 354 0.0 3.0 0.00 0.00 0.00 97 1023.3
20260906001002 69 7 0.0 0.0 0.00 0.00 0.00 97 1023.4
20260906000000 69 359 0.0 2.0 0.00 0.00 0.00 97 1023.2
20260905235459 69 359 1.0 2.0 0.00 0.00 0.00 97 1023.3
20260905235003 69 359 1.0 2.0 0.00 0.00 0.00 96 1023.3
20260905234500 69 17 0.0 2.0 0.00 0.00 0.00 96 1023.3
20260905233959 69 356 0.0 2.0 0.00 0.00 0.00 96 1023.3
20260905233513 70 20 0.0 1.0 0.00 0.00 0.00 96 1023.4
20260905233000 70 96 0.0 1.0 0.00 0.00 0.00 96 1023.3
20260905232501 70 96 0.0 0.0 0.00 0.00 0.00 96 1023.3
20260905232002 70 96 0.0 0.0 0.00 0.00 0.00 96 1023.3
20260905231459 70 127 0.0 0.0 0.00 0.00 0.00 96 1023.4
20260905230459 70 127 0.0 0.0 0.00 0.00 0.00 96 1023.3
20260905225957 70 127 0.0 0.0 0.00 0.00 0.00 96 1023.4
20260905225458 70 127 0.0 0.0 0.00 0.00 0.00 96 1023.6
20260905224957 70 127 0.0 1.0 0.00 0.00 0.00 96 1023.5
20260905223953 70 139 0.0 2.0 0.00 0.00 0.00 96 1023.4
20260905222954 70 110 0.0 1.0 0.00 0.00 0.00 96 1023.4
20260905222456 70 117 0.0 0.0 0.00 0.00 0.00 96 1023.5
20260905221955 70 117 0.0 0.0 0.00 0.00 0.00 96 1023.5
20260905221455 70 117 0.0 0.0 0.00 0.00 0.00 96 1023.4
20260905220956 70 117 0.0 0.0 0.00 0.00 0.00 96 1023.4
20260905220456 70 117 0.0 0.0 0.00 0.00 0.00 96 1023.4
20260905215954 70 117 0.0 0.0 0.00 0.00 0.00 96 1023.3
20260905215453 70 112 0.0 1.0 0.00 0.00 0.00 95 1023.2
20260905214952 70 93 0.0 1.0 0.00 0.00 0.00 95 1023.3
20260905214450 70 87 0.0 2.0 0.00 0.00 0.00 95 1023.2
20260905213950 70 100 0.0 2.0 0.00 0.00 0.00 95 1023.1
20260905213451 70 94 0.0 1.0 0.00 0.00 0.00 95 1023.1
20260905212952 70 103 0.0 1.0 0.00 0.00 0.00 95 1023.1
20260905212449 70 112 0.0 1.0 0.00 0.00 0.00 95 1023.1
20260905211952 70 156 0.0 0.0 0.00 0.00 0.00 94 1023.1
20260905211449 69 232 0.0 0.0 0.00 0.00 0.00 94 1023.1
20260905210950 70 232 0.0 0.0 0.00 0.00 0.00 94 1023.2
20260905210450 69 232 0.0 0.0 0.00 0.00 0.00 93 1023.0
20260905205951 69 232 0.0 0.0 0.00 0.00 0.00 94 1023.1
20260905205453 69 232 0.0 0.0 0.00 0.00 0.00 93 1023.1
20260905204953 70 232 0.0 0.0 0.00 0.00 0.00 93 1023.1
20260905204449 70 232 0.0 0.0 0.00 0.00 0.00 92 1023.1
20260905203949 70 232 0.0 0.0 0.00 0.00 0.00 92 1023.1
20260905203449 70 232 0.0 0.0 0.00 0.00 0.00 92 1023.2
20260905202447 70 232 0.0 0.0 0.00 0.00 0.00 92 1023.2
20260905201950 71 232 0.0 0.0 0.00 0.00 0.00 91 1023.2
20260905201450 71 232 0.0 2.0 0.00 0.00 0.00 91 1023.2
20260905200947 71 249 0.0 2.0 0.00 0.00 0.00 92 1023.2
20260905200450 71 244 0.0 1.0 0.00 0.00 0.00 92 1023.0
20260905195948 71 244 0.0 1.0 0.00 0.00 0.00 92 1023.1
20260905195450 71 244 0.0 2.0 0.00 0.00 0.00 92 1023.1
20260905194946 71 224 0.0 2.0 0.00 0.00 0.00 92 1023.1
20260905194446 71 229 0.0 2.0 0.00 0.00 0.00 92 1023.0
20260905193945 71 145 0.0 2.0 0.00 0.00 0.00 91 1023.0
20260905193448 71 134 0.0 3.0 0.00 0.00 0.00 91 1023.0
20260905192948 71 127 0.0 3.0 0.00 0.00 0.00 90 1022.9
20260905191945 72 195 0.0 3.0 0.00 0.00 0.00 89 1023.0
20260905190945 72 196 0.0 3.0 0.00 0.00 0.00 88 1022.8
20260905190446 72 124 0.0 3.0 0.00 0.00 0.00 88 1022.7
20260905185945 73 159 0.0 3.0 0.00 0.00 0.00 88 1022.7
20260905185444 73 155 1.0 3.0 0.00 0.00 0.00 88 1022.7
20260905184946 73 213 1.0 4.0 0.00 0.00 0.00 87 1022.7
20260905183942 73 156 1.0 4.0 0.00 0.00 0.00 85 1022.6
20260905183439 74 150 1.0 4.0 0.00 0.00 0.00 85 1022.3
20260905182942 74 163 1.0 6.0 0.00 0.00 0.00 84 1022.3
20260905182440 74 156 1.0 6.0 0.00 0.00 0.00 84 1022.3
20260905181942 74 149 0.0 3.0 0.00 0.00 0.00 82 1022.2
20260905181439 75 153 1.0 5.0 0.00 0.00 0.00 80 1022.3
20260905180939 75 272 1.0 5.0 0.00 0.00 0.00 79 1022.1
20260905180440 75 155 1.0 5.0 0.00 0.00 0.00 78 1022.1
20260905175939 75 227 1.0 5.0 0.00 0.00 0.00 77 1022.1
20260905175438 76 153 1.0 5.0 0.00 0.00 0.00 75 1022.1
20260905174942 76 146 1.0 5.0 0.00 0.00 0.00 74 1022.1
20260905174440 76 160 1.0 4.0 0.00 0.00 0.00 73 1022.1
20260905173939 77 201 2.0 5.0 0.00 0.00 0.00 72 1022.1
20260905173442 78 229 2.0 6.0 0.00 0.00 0.00 71 1022.1
20260905172942 78 229 2.0 6.0 0.00 0.00 0.00 70 1022.0
20260905172441 79 195 2.0 6.0 0.00 0.00 0.00 69 1022.0
20260905171939 79 208 2.0 5.0 0.00 0.00 0.00 68 1022.0
20260905171438 80 212 1.0 5.0 0.00 0.00 0.00 67 1022.0
20260905170934 81 205 1.0 5.0 0.00 0.00 0.00 66 1022.2
20260905170435 81 199 2.0 5.0 0.00 0.00 0.00 66 1022.1
20260905165429 81 225 4.0 9.0 0.00 0.00 0.00 65 1022.2
20260905164923 82 215 3.0 9.0 0.00 0.00 0.00 64 1022.1
20260905164424 82 229 2.0 7.0 0.00 0.00 0.00 63 1022.0
20260905163925 82 222 3.0 7.0 0.00 0.00 0.00 63 1021.9
20260905163423 83 214 3.0 10.0 0.00 0.00 0.00 62 1021.9
20260905162423 83 205 3.0 7.0 0.00 0.00 0.00 58 1021.9
20260905161925 83 226 3.0 7.0 0.00 0.00 0.00 56 1021.8
20260905160425 84 231 3.0 7.0 0.00 0.00 0.00 51 1021.9
20260905155923 85 266 3.0 8.0 0.00 0.00 0.00 50 1021.9
20260905155423 85 174 3.0 8.0 0.00 0.00 0.00 49 1021.9
20260905154923 85 224 3.0 9.0 0.00 0.00 0.00 48 1021.9
20260905154422 86 186 3.0 9.0 0.00 0.00 0.00 48 1021.8
20260905153917 86 214 3.0 11.0 0.00 0.00 0.00 47 1021.8
20260905153418 86 265 3.0 11.0 0.00 0.00 0.00 46 1021.9
20260905152917 86 217 3.0 10.0 0.00 0.00 0.00 45 1021.8
20260905152419 86 223 4.0 10.0 0.00 0.00 0.00 44 1021.8
20260905151916 86 215 4.0 9.0 0.00 0.00 0.00 42 1021.8
20260905151419 86 212 4.0 10.0 0.00 0.00 0.00 44 1021.8
20260905150915 86 201 5.0 10.0 0.00 0.00 0.00 44 1021.9
20260905150415 87 205 4.0 8.0 0.00 0.00 0.00 43 1021.8
20260905145914 87 192 3.0 8.0 0.00 0.00 0.00 44 1021.8
20260905145413 87 239 3.0 8.0 0.00 0.00 0.00 46 1021.9
20260905144913 87 159 4.0 10.0 0.00 0.00 0.00 48 1021.9
20260905144413 86 233 5.0 11.0 0.00 0.00 0.00 48 1021.9
20260905143413 86 132 4.0 10.0 0.00 0.00 0.00 47 1022.0
20260905142911 87 233 4.0 10.0 0.00 0.00 0.00 47 1021.9
20260905142408 87 219 4.0 10.0 0.00 0.00 0.00 47 1022.0
20260905141910 86 218 4.0 10.0 0.00 0.00 0.00 48 1022.0
20260905141407 86 187 6.0 12.0 0.00 0.00 0.00 49 1021.9
20260905140907 86 228 6.0 12.0 0.00 0.00 0.00 48 1022.0
20260905140407 87 217 5.0 12.0 0.00 0.00 0.00 47 1022.0
20260905135907 87 186 5.0 15.0 0.00 0.00 0.00 47 1022.0
20260905135407 87 212 6.0 15.0 0.00 0.00 0.00 46 1022.0
20260905134905 87 216 5.0 11.0 0.00 0.00 0.00 44 1022.1
20260905134407 87 225 4.0 11.0 0.00 0.00 0.00 45 1022.1
20260905133905 87 199 4.0 11.0 0.00 0.00 0.00 45 1022.1
20260905133403 87 227 5.0 11.0 0.00 0.00 0.00 47 1022.2
20260905132904 87 247 4.0 11.0 0.00 0.00 0.00 45 1022.2
20260905131859 87 210 3.0 10.0 0.00 0.00 0.00 43 1022.3
20260905131358 87 274 4.0 10.0 0.00 0.00 0.00 47 1022.3
20260905130902 87 233 5.0 14.0 0.00 0.00 0.00 47 1022.3
20260905130358 87 229 5.0 14.0 0.00 0.00 0.00 45 1022.6
20260905125901 88 211 5.0 12.0 0.00 0.00 0.00 42 1022.6
20260905125359 88 234 4.0 12.0 0.00 0.00 0.00 45 1022.6
20260905124859 87 184 4.0 11.0 0.00 0.00 0.00 44 1022.6
20260905123855 87 213 3.0 13.0 0.00 0.00 0.00 44 1022.5
20260905123356 88 236 3.0 9.0 0.00 0.00 0.00 43 1022.6
20260905122855 88 222 5.0 12.0 0.00 0.00 0.00 43 1022.7
20260905122354 87 214 5.0 12.0 0.00 0.00 0.00 44 1022.7
20260905121355 87 210 3.0 10.0 0.00 0.00 0.00 46 1022.8
20260905120854 87 285 3.0 8.0 0.00 0.00 0.00 45 1022.8
20260905120356 87 151 3.0 8.0 0.00 0.00 0.00 45 1022.8
20260905115854 87 148 2.0 8.0 0.00 0.00 0.00 45 1022.8
20260905115355 87 99 3.0 10.0 0.00 0.00 0.00 46 1022.9
20260905114855 86 118 4.0 10.0 0.00 0.00 0.00 45 1022.9
20260905114354 87 188 3.0 10.0 0.00 0.00 0.00 44 1022.9
20260905113854 87 158 2.0 7.0 0.00 0.00 0.00 46 1022.9
20260905113356 86 131 3.0 7.0 0.00 0.00 0.00 45 1022.9
20260905112857 86 220 3.0 8.0 0.00 0.00 0.00 46 1023.0
20260905112356 86 149 3.0 8.0 0.00 0.00 0.00 46 1023.1
20260905111852 86 160 2.0 8.0 0.00 0.00 0.00 44 1022.8
20260905111353 86 151 2.0 8.0 0.00 0.00 0.00 45 1022.9
20260905110851 86 174 2.0 9.0 0.00 0.00 0.00 45 1022.8
20260905110352 86 71 2.0 9.0 0.00 0.00 0.00 45 1023.1
20260905105851 86 110 2.0 6.0 0.00 0.00 0.00 46 1023.1
20260905104846 85 208 3.0 7.0 0.00 0.00 0.00 46 1023.2
20260905104347 85 208 2.0 7.0 0.00 0.00 0.00 47 1023.2
20260905103847 84 143 2.0 7.0 0.00 0.00 0.00 47 1023.3
20260905103348 84 192 2.0 7.0 0.00 0.00 0.00 47 1023.3
20260905102846 84 198 3.0 9.0 0.00 0.00 0.00 48 1023.2
20260905102344 83 198 4.0 9.0 0.00 0.00 0.00 48 1023.2
20260905101344 83 108 2.0 6.0 0.00 0.00 0.00 50 1023.2
20260905095842 83 150 2.0 6.0 0.00 0.00 0.00 51 1023.1
20260905095344 83 188 3.0 7.0 0.00 0.00 0.00 51 1023.1
20260905094841 82 155 3.0 7.0 0.00 0.00 0.00 53 1023.0
20260905093338 82 237 3.0 7.0 0.00 0.00 0.00 54 1023.1
20260905092839 82 201 2.0 7.0 0.00 0.00 0.00 56 1023.1
20260905091838 81 198 3.0 8.0 0.00 0.00 0.00 58 1023.0
20260905090838 80 166 4.0 8.0 0.00 0.00 0.00 57 1023.0
20260905090337 80 145 3.0 8.0 0.00 0.00 0.00 56 1023.0
20260905085832 80 154 4.0 10.0 0.00 0.00 0.00 58 1022.8
20260905085325 80 232 4.0 10.0 0.00 0.00 0.00 58 1022.8
20260905084822 80 143 3.0 7.0 0.00 0.00 0.00 58 1023.1
20260905084323 80 126 2.0 7.0 0.00 0.00 0.00 58 1023.1
20260905083822 81 141 1.0 7.0 0.00 0.00 0.00 57 1023.0
20260905082821 80 142 1.0 4.0 0.00 0.00 0.00 58 1023.1
20260905082320 79 165 1.0 4.0 0.00 0.00 0.00 59 1023.1
20260905081318 79 207 2.0 4.0 0.00 0.00 0.00 58 1023.0
20260905080821 79 143 1.0 4.0 0.00 0.00 0.00 58 1022.9
20260905075315 78 147 1.0 5.0 0.00 0.00 0.00 60 1022.8
20260905074818 78 144 1.0 3.0 0.00 0.00 0.00 59 1022.8
20260905074315 78 207 1.0 2.0 0.00 0.00 0.00 59 1022.9
20260905073809 78 218 1.0 3.0 0.00 0.00 0.00 59 1022.8
20260905072804 77 202 1.0 5.0 0.00 0.00 0.00 57 1022.6
20260905072306 78 211 1.0 3.0 0.00 0.00 0.00 60 1022.6
20260905071801 78 167 1.0 3.0 0.00 0.00 0.00 59 1022.6
20260905071302 78 162 1.0 3.0 0.00 0.00 0.00 58 1022.6
20260905070800 78 153 1.0 3.0 0.00 0.00 0.00 57 1022.5
20260905064758 78 149 0.0 1.0 0.00 0.00 0.00 57 1022.5
20260905064259 77 213 0.0 1.0 0.00 0.00 0.00 58 1022.3
20260905063258 77 152 0.0 1.0 0.00 0.00 0.00 58 1022.3
20260905062757 76 139 0.0 2.0 0.00 0.00 0.00 59 1022.3
20260905062254 76 157 0.0 2.0 0.00 0.00 0.00 58 1022.3
20260905061244 76 165 0.0 0.0 0.00 0.00 0.00 58 1022.5
20260905060744 76 153 0.0 1.0 0.00 0.00 0.00 60 1022.3
20260905060240 76 139 0.0 1.0 0.00 0.00 0.00 59 1022.2
20260905055742 75 144 0.0 1.0 0.00 0.00 0.00 58 1022.2
20260905055241 75 152 0.0 0.0 0.00 0.00 0.00 58 1022.2
20260905054739 74 26 0.0 0.0 0.00 0.00 0.00 59 1022.2
20260905054240 73 26 0.0 0.0 0.00 0.00 0.00 60 1022.3
20260905053239 74 26 0.0 0.0 0.00 0.00 0.00 61 1022.5
20260905052739 74 26 0.0 0.0 0.00 0.00 0.00 59 1022.3
20260905052236 74 27 0.0 0.0 0.00 0.00 0.00 59 1022.3